Back to catalog

LAPAN-TUBSAT

AliveScienceSSO
NORAD 29709·PAYLOAD·🇮🇩 Indonesia

Launched Jan 10, 2007 from Satish Dhawan Space Centre

Loading…

Next Passes (next 24 hours)

TLE

FreshSource: Space-Track

Epoch: Sep 14, 2026, 14:37 UTC

1 29709U 07001A   26257.60939323 -.00000254  00000-0 -22439-4 0  9999
2 29709  98.1397 258.8807 0010780 254.2179 105.7847 14.86023679 64435

Track LAPAN-TUBSAT in real time with AllMySat

Download on the App Store